STARLINK-32797, 62843

Orbit data source: Space-Track

STARLINK-32797, 62843 is a payload satellite owned by SpaceX/Seattle (US) in LEO that was launched on Mon, 27 Jan 2025 UTC via an FALCON 9 launch vehicle from the Air Force Eastern Test Range (AFETR). Payload-class satellites include a variety of spacecraft equipped with specific instruments for various scientific and technological missions. These include communications satellites like Starlink; space stations such as the ISS; scientific satellites like the Hubble; Earth observation satellites from companies like Planet Labs, Umbra, and HawkEye 360; GPS; miniature CubeSats for education and research; and military/defense satellites.

Loading next visibility...
Identifier
62843, 2025-019Q
Orbit
LEO
Country
Flag of USUS
Related business
Manufacturer
SpaceX/Seattle
Mission
Operational Commercial Communications
Bus & Motor
STARLINK V2M, Unknown motor
Mass
730 kg wet, ~700 kg dry
Launch date (UTC)
2025-01-27 (8 months ago)
Launch vehicle
FALCON 9
Launch site
Air Force Eastern Test Range (AFETR)
Object type
Payload
Rocket body
Debris
Shape & HBR
Box + 2 Pan, 14.5 m
Radar Cross Section
33.884 m², Large (>1 m²)

Expand to show TLE details & history
Last TLE update: 13 hours ago

TLE from 13 hours ago
0 STARLINK-32797
1 62843U 25019Q   25259.25132884  .00028084  00000-0  10259-2 0  9997
2 62843  43.0040 354.0490 0000886 279.5037  80.5715 15.27588772 35574
Epoch: 2025-09-16T06:01Z
TLE epoch observation values (Epoch: 2025-09-16T06:01:54.811Z)
Latitude
Longitude
-91.87369°
Altitude
482.699 km
Speed
7.626 km/s
True Right ascension
23h 36m 11s
True Declination
0° 00' 00"
Sunlit
Object was in full shadow at epoch
Visualization orbit readout
Latitude
Unknown
Longitude
Unknown
Altitude
Unknown
Speed
Unknown
Apparent Right ascension
Unknown
Apparent Declination
Unknown
Sunlit
N/A
Visualization observer readout
Local Sidereal Time
12:13:16
Azimuth
Unknown
Elevation
Unknown
Doppler factor
Unknown
Orbital elements
Apogee altitude
485.575 km
Perigee altitude
484.359 km
Semi-major axis
6,863.104 km
Eccentricity
0.00009
Inclination
43.004°
RAAN
354.049°
Arg. of periapsis
279.5037°
True anomaly
80.58152°
Mean anomaly
80.5715°
Eccentric anomaly
80.57651°
Mean motion
3.81735 °/min
Orbital period
94.31 mins
BSTAR
0.0010259
Loading maneuver chart data...
Computing Atmospheric mass density...
Loading historical data...
Loading historical data...
Loading historical data...
Loading historical data...
Loading historical data...
Loading historical data...
Loading historical data...

Documentation

Showing up to 5 results
|